This is the latest recevied weather packets stored in our database for station/object KC4LZN. If no packets are shown the sender has not sent any weather packets the latest 10 day(s).
| Time | Temp. | Humidity | Pressure | Rain* | Wind** | Luminosity | Snow |
|---|---|---|---|---|---|---|---|
| 1777652312 | 29.44° C | 58% | 1013.3 hPa | 0 mm | - | 844 W/m² | - |
| 1777652009 | 30° C | 57% | 1013.6 hPa | 0 mm | - | 845 W/m² | - |
| 1777651705 | 30° C | 59% | 1013.4 hPa | 0 mm | - | 836 W/m² | - |
| 1777651402 | 30° C | 59% | 1013.6 hPa | 0 mm | - | 825 W/m² | - |
| 1777651099 | 28.89° C | 60% | 1013.6 hPa | 0 mm | - | 821 W/m² | - |
| 1777650796 | 28.89° C | 61% | 1013.4 hPa | 0 mm | - | 820 W/m² | - |
| 1777650492 | 29.44° C | 61% | 1013.4 hPa | 0 mm | - | 746 W/m² | - |
| 1777650190 | 28.89° C | 60% | 1013.3 hPa | 0 mm | - | 798 W/m² | - |
| 1777649888 | 28.89° C | 61% | 1013.5 hPa | 0 mm | - | 787 W/m² | - |
| 1777649585 | 28.89° C | 61% | 1013.5 hPa | 0 mm | - | 777 W/m² | - |
| 1777649280 | 28.33° C | 62% | 1013.4 hPa | 0 mm | - | 769 W/m² | - |
| 1777648978 | 28.89° C | 62% | 1013.4 hPa | 0 mm | - | 757 W/m² | - |
| 1777648675 | 28.33° C | 63% | 1013.2 hPa | 0 mm | - | 750 W/m² | - |
| 1777648371 | 27.78° C | 64% | 1013.5 hPa | 0 mm | - | 739 W/m² | - |
| 1777648068 | 27.78° C | 66% | 1013.4 hPa | 0 mm | - | 726 W/m² | - |
| 1777647764 | 27.78° C | 65% | 1013.5 hPa | 0 mm | - | 717 W/m² | - |
| 1777647460 | 27.78° C | 67% | 1013.4 hPa | 0 mm | - | 705 W/m² | - |
| 1777647158 | 27.78° C | 66% | 1013.5 hPa | 0 mm | - | 695 W/m² | - |
| 1777646854 | 27.78° C | 68% | 1013.5 hPa | 0 mm | - | 680 W/m² | - |
| 1777646550 | 28.33° C | 62% | 1013.6 hPa | 0 mm | - | 667 W/m² | - |
| 1777646241 | 27.78° C | 62% | 1013.4 hPa | 0 mm | - | 655 W/m² | - |
| 1777645939 | 27.78° C | 61% | 1013.5 hPa | 0 mm | - | 646 W/m² | - |
| 1777645635 | 27.22° C | 72% | 1013.4 hPa | 0 mm | - | 657 W/m² | - |
| 1777645331 | 27.22° C | 73% | 1013.6 hPa | 0 mm | - | 666 W/m² | - |
| 1777645027 | 26.67° C | 75% | 1013.2 hPa | 0 mm | - | 537 W/m² | - |
* Rain latest hour (hover to see other rain measurements)
** Current wind speed in m/s (hover to see current wind gust speed)